[[{"header":{"parameterUnit":"m.s-1","parameterCategory":1,"la1":30.2991,"la2":30.254,"lo1":-89.0895,"lo2":-89.0444,"dy":0.0017,"dx":0.0017,"nx":28,"ny":28,"refTime":"2025-08-20T09:00:00:Z","depth":0,"parameterNumber":2,"parameterNumberName":"U-component_of_WINDS"},"data":[0,0,0,0,0,0,0,0,0,0,0,0,0,0,0,0,0,0,0,0,0,0,0,0,0,0,0,0,0,0,0,0,0,0,0,0,0,0,0,0,0,0,0,0,0,0,0,0,0,0,0,0,0,0,0,0,0,0,-0.7393,-0.7393,0,-0.7349,-0.7348,-0.7348,-0.7332,-0.7333,-0.7333,-0.7333,-0.7285,-0.7283,-0.7282,0,0,0,0,0,0,0,0,0,0,0,0,0,-0.7461,-0.746,-0.7393,-0.7393,-0.7392,-0.7349,-0.7348,-0.7348,-0.7332,-0.7333,-0.7333,-0.7333,-0.7285,-0.7283,-0.7282,0,0,0,0,0,0,0,0,0,0,0,0,0,-0.7425,-0.7459,-0.7394,-0.738,-0.7378,-0.7349,-0.7348,-0.7347,-0.7332,-0.7333,-0.7333,-0.7333,-0.7286,-0.7283,-0.7281,-0.7262,0,0,-0.7275,-0.7274,0,0,0,0,0,0,0,0,-0.7427,-0.7423,-0.7382,-0.738,-0.7378,-0.7346,-0.7354,-0.7319,-0.7332,-0.7349,-0.7333,-0.7333,-0.7305,-0.7301,-0.7292,-0.726,-0.7258,-0.7274,-0.7273,-0.7272,-0.7272,0,0,0,0,0,0,0,-0.743,-0.7425,-0.7376,-0.7382,-0.7379,-0.7374,-0.7369,-0.7347,-0.7326,-0.7348,-0.7347,-0.7342,-0.7304,-0.7294,-0.7291,-0.7257,-0.7275,-0.7273,-0.7271,-0.727,-0.7204,-0.7203,0,0,0,0,0,0,-0.7435,-0.7427,-0.7377,-0.7374,-0.7404,-0.7372,-0.7367,-0.7356,-0.7326,-0.7322,-0.7342,-0.7341,-0.7298,-0.7293,-0.7289,-0.7262,-0.7272,-0.727,-0.7269,-0.7204,-0.7204,-0.7203,0,0,0,0,0,0,-0.7437,-0.7431,-0.7379,-0.74,-0.7393,-0.7371,-0.7359,-0.7355,-0.7346,-0.7322,-0.7317,-0.7336,-0.7298,-0.7292,-0.7268,-0.726,-0.7269,-0.7267,-0.7205,-0.7204,-0.7203,-0.7211,0,0,0,0,0,0,-0.7439,-0.7432,-0.7426,-0.74,-0.7392,-0.7361,-0.7359,-0.7354,-0.7342,-0.7341,-0.7315,-0.7311,-0.7297,-0.7272,-0.7266,-0.7258,-0.7265,-0.7205,-0.7204,-0.7204,-0.7211,-0.721,-0.721,0,0,0,0,0,-0.7441,-0.743,-0.7425,-0.7419,-0.7384,-0.736,-0.7356,-0.7341,-0.7342,-0.7334,-0.7318,-0.7312,-0.7262,-0.727,-0.7263,-0.7254,-0.7206,-0.7205,-0.7204,-0.7211,-0.721,-0.721,0,0,0,0,0,0,-0.7454,-0.7426,-0.7421,-0.7401,-0.7383,-0.7358,-0.7348,-0.7341,-0.7322,-0.7322,-0.7304,-0.7298,-0.7275,-0.7262,-0.7271,-0.7232,-0.7233,-0.7231,-0.7241,-0.724,-0.724,-0.7243,-0.7264,0,0,0,0,0,-0.7455,-0.7439,-0.7415,-0.7399,-0.7391,-0.7371,-0.736,-0.735,-0.7331,-0.7323,-0.7305,-0.7285,-0.7265,-0.7252,-0.7232,-0.7209,-0.7201,-0.7199,-0.7198,-0.7198,-0.7196,-0.7179,-0.7177,-0.72,-0.72,-0.72,0,0,-0.7456,-0.7439,-0.743,-0.7402,-0.7387,-0.7369,-0.7365,-0.7347,-0.7333,-0.732,-0.7296,-0.7282,-0.7259,-0.7234,-0.7223,-0.7223,-0.7187,-0.7197,-0.7196,-0.7194,-0.7178,-0.7175,-0.7173,-0.7199,-0.7199,-0.7199,0,0,-0.7449,-0.7435,-0.7419,-0.7404,-0.7381,-0.7367,-0.7364,-0.7339,-0.7329,-0.7305,-0.7294,-0.7276,-0.7242,-0.7225,-0.7212,-0.7194,-0.7186,-0.7188,-0.7184,-0.7168,-0.7166,-0.7164,-0.7155,-0.7153,-0.7186,-0.7186,-0.7186,0,-0.7453,-0.7427,-0.7412,-0.7394,-0.738,-0.7368,-0.735,-0.7336,-0.7307,-0.7297,-0.7298,-0.7253,-0.7237,-0.7206,-0.7202,-0.7193,-0.7185,-0.7191,-0.7168,-0.7166,-0.7164,-0.7155,-0.7152,-0.7186,-0.7186,-0.7186,-0.7186,0,-0.7431,-0.7413,-0.7403,-0.7376,-0.7361,-0.7344,-0.7324,-0.7311,-0.7301,-0.7287,-0.7261,-0.724,-0.7214,-0.7207,-0.7198,-0.7174,-0.7174,-0.7172,-0.7173,-0.7162,-0.7154,-0.715,-0.7187,-0.7187,-0.7187,-0.7187,0,0,-0.7433,-0.7395,-0.7392,-0.7378,-0.735,-0.7335,-0.7315,-0.729,-0.7278,-0.7258,-0.7239,-0.721,-0.7206,-0.7191,-0.7179,-0.7165,-0.7149,-0.7164,-0.7163,-0.716,-0.7118,-0.7119,-0.7115,-0.7144,-0.7143,-0.7143,-0.7119,0,-0.742,-0.7386,-0.7371,-0.7342,-0.7323,-0.7309,-0.7292,-0.7272,-0.7257,-0.7237,-0.7221,-0.7199,-0.7197,-0.7187,-0.7173,-0.7154,-0.714,-0.7156,-0.7124,-0.7123,-0.7129,-0.7111,-0.7113,-0.7092,-0.7116,-0.7115,-0.7115,0,-0.7402,-0.7381,-0.7351,-0.7323,-0.7314,-0.7299,-0.7273,-0.7255,-0.7231,-0.7221,-0.7202,-0.7191,-0.7167,-0.717,-0.7134,-0.7145,-0.7131,-0.7119,-0.7118,-0.7114,-0.7117,-0.7104,-0.7085,-0.7081,-0.711,-0.711,-0.711,0,-0.7403,-0.7368,-0.7344,-0.7333,-0.73,-0.7289,-0.7274,-0.725,-0.7235,-0.7212,-0.7201,-0.7176,-0.7161,-0.714,-0.7121,-0.7125,-0.7086,-0.7088,-0.7075,-0.7075,-0.7067,-0.7067,-0.7043,-0.706,-0.706,-0.7061,-0.7061,0,-0.739,-0.7372,-0.7344,-0.733,-0.7307,-0.7288,-0.7266,-0.725,-0.7228,-0.7208,-0.7195,-0.7176,-0.7153,-0.713,-0.7115,-0.7086,-0.708,-0.7069,-0.7065,-0.707,-0.7071,-0.7059,-0.7059,-0.706,-0.706,-0.706,-0.706,0,-0.7388,-0.7369,-0.7342,-0.7312,-0.7304,-0.7289,-0.7262,-0.7246,-0.723,-0.7205,-0.7197,-0.7171,-0.7144,-0.7122,-0.7087,-0.7076,-0.7045,-0.7041,-0.7053,-0.7051,-0.7038,-0.7038,-0.7004,-0.6997,-0.7021,-0.7021,-0.7021,0,-0.7381,-0.7366,-0.7334,-0.732,-0.7306,-0.7284,-0.7267,-0.7247,-0.7231,-0.72,-0.7186,-0.7158,-0.7134,-0.709,-0.7067,-0.7038,-0.7032,-0.7022,-0.7028,-0.7032,-0.7029,-0.703,-0.7026,-0.7021,-0.7021,-0.7021,-0.7021,0,-0.7369,-0.736,-0.7338,-0.7312,-0.7293,-0.7271,-0.7249,-0.7238,-0.7213,-0.7194,-0.7166,-0.7147,-0.711,-0.708,-0.7049,-0.7031,-0.702,-0.7019,-0.7014,-0.7018,-0.7024,-0.7018,-0.7049,-0.702,-0.702,-0.702,-0.702,-0.702,-0.7363,-0.7348,-0.7322,-0.7297,-0.7278,-0.7257,-0.7239,-0.722,-0.7196,-0.7164,-0.7153,-0.7123,-0.7095,-0.7051,-0.7033,-0.7008,-0.7007,-0.7001,-0.6998,-0.6997,-0.6995,-0.7029,-0.7002,-0.7002,-0.7002,-0.7002,-0.7002,0,-0.7349,-0.7331,-0.7308,-0.7277,-0.7256,-0.7248,-0.7222,-0.7205,-0.7179,-0.7154,-0.713,-0.7095,-0.7065,-0.7039,-0.7007,-0.6991,-0.6985,-0.6984,-0.6984,-0.6979,-0.6999,-0.7006,-0.6989,-0.6989,-0.6989,-0.6989,-0.6989,-0.6989,-0.7339,-0.7312,-0.7299,-0.7261,-0.7242,-0.7213,-0.7198,-0.7177,-0.7157,-0.7119,-0.7094,-0.7077,-0.705,-0.7016,-0.6987,-0.698,-0.6967,-0.6966,-0.6957,-0.6977,-0.6978,-0.698,-0.6985,-0.6964,-0.6964,-0.6939,-0.6939,-0.6938]},{"header":{"parameterUnit":"m.s-1","parameterCategory":1,"la1":30.2991,"la2":30.254,"lo1":-89.0895,"lo2":-89.0444,"dy":0.0017,"dx":0.0017,"nx":28,"ny":28,"refTime":"2025-08-20T09:00:00:Z","depth":0,"parameterNumber":3,"parameterNumberName":"V-component_of_WINDS"},"data":[0,0,0,0,0,0,0,0,0,0,0,0,0,0,0,0,0,0,0,0,0,0,0,0,0,0,0,0,0,0,0,0,0,0,0,0,0,0,0,0,0,0,0,0,0,0,0,0,0,0,0,0,0,0,0,0,0,0,-1.0572,-1.0573,0,-1.0668,-1.067,-1.0671,-1.0715,-1.0714,-1.0714,-1.0714,-1.081,-1.0813,-1.0816,0,0,0,0,0,0,0,0,0,0,0,0,0,-1.0422,-1.0424,-1.0572,-1.0573,-1.0574,-1.0668,-1.067,-1.0671,-1.0715,-1.0714,-1.0714,-1.0714,-1.0809,-1.0813,-1.0816,0,0,0,0,0,0,0,0,0,0,0,0,0,-1.0499,-1.0425,-1.0572,-1.0607,-1.0612,-1.0668,-1.067,-1.0671,-1.0715,-1.0714,-1.0714,-1.0714,-1.0808,-1.0812,-1.0816,-1.0843,0,0,-1.0828,-1.083,0,0,0,0,0,0,0,0,-1.0495,-1.0505,-1.0601,-1.0605,-1.061,-1.0679,-1.0652,-1.0729,-1.0715,-1.0675,-1.0714,-1.0714,-1.0767,-1.0774,-1.0792,-1.0848,-1.0852,-1.0829,-1.0831,-1.0833,-1.0834,0,0,0,0,0,0,0,-1.049,-1.0501,-1.061,-1.0602,-1.0608,-1.0618,-1.0628,-1.0667,-1.072,-1.0679,-1.0682,-1.0693,-1.0769,-1.0788,-1.0795,-1.0853,-1.0829,-1.0832,-1.0835,-1.0836,-1.0935,-1.0935,0,0,0,0,0,0,-1.0479,-1.0496,-1.0607,-1.0613,-1.0551,-1.062,-1.0633,-1.0657,-1.072,-1.073,-1.0693,-1.0695,-1.0782,-1.079,-1.0799,-1.0834,-1.0833,-1.0836,-1.0839,-1.0935,-1.0935,-1.0935,0,0,0,0,0,0,-1.0475,-1.0488,-1.0603,-1.0556,-1.0571,-1.0623,-1.065,-1.0659,-1.0679,-1.0731,-1.0741,-1.0703,-1.0782,-1.0793,-1.0832,-1.0838,-1.0838,-1.0842,-1.0935,-1.0935,-1.0935,-1.0906,0,0,0,0,0,0,-1.0471,-1.0487,-1.0498,-1.0556,-1.0573,-1.0636,-1.0651,-1.0661,-1.0686,-1.0689,-1.0743,-1.0752,-1.0783,-1.0826,-1.0836,-1.0844,-1.0845,-1.0934,-1.0935,-1.0935,-1.0907,-1.0906,-1.0905,0,0,0,0,0,-1.0465,-1.0486,-1.0499,-1.0512,-1.0589,-1.0636,-1.0646,-1.0682,-1.0686,-1.0698,-1.0731,-1.075,-1.0836,-1.0829,-1.0841,-1.085,-1.0934,-1.0935,-1.0935,-1.0907,-1.0906,-1.0905,0,0,0,0,0,0,-1.0428,-1.0494,-1.0509,-1.0549,-1.0587,-1.0643,-1.0659,-1.0679,-1.0716,-1.0717,-1.0758,-1.077,-1.0806,-1.0832,-1.0823,-1.0879,-1.0887,-1.0889,-1.0861,-1.086,-1.0859,-1.0852,-1.0848,0,0,0,0,0,-1.0424,-1.0457,-1.0513,-1.0543,-1.0561,-1.0607,-1.0629,-1.0653,-1.0693,-1.0709,-1.0745,-1.0783,-1.0818,-1.0841,-1.0876,-1.091,-1.0923,-1.0922,-1.0921,-1.092,-1.0922,-1.0942,-1.0942,-1.0937,-1.0937,-1.0937,0,0,-1.0417,-1.0457,-1.0476,-1.0536,-1.0568,-1.0601,-1.062,-1.0654,-1.0679,-1.0714,-1.0753,-1.0781,-1.0825,-1.0862,-1.088,-1.0885,-1.0926,-1.0921,-1.0919,-1.0922,-1.0943,-1.0943,-1.0943,-1.0938,-1.0938,-1.0938,0,0,-1.042,-1.0454,-1.0483,-1.0515,-1.0563,-1.0593,-1.06,-1.0654,-1.0674,-1.0714,-1.0741,-1.077,-1.083,-1.0861,-1.0884,-1.0898,-1.0917,-1.0908,-1.0902,-1.0921,-1.0921,-1.0922,-1.0927,-1.0928,-1.091,-1.091,-1.091,0,-1.0405,-1.0457,-1.0495,-1.0528,-1.0553,-1.0587,-1.0616,-1.0644,-1.0701,-1.0717,-1.0722,-1.0798,-1.083,-1.0875,-1.0878,-1.0896,-1.0904,-1.0903,-1.0918,-1.0919,-1.092,-1.0925,-1.0927,-1.0909,-1.0909,-1.0909,-1.0909,0,-1.0435,-1.047,-1.0487,-1.0543,-1.057,-1.06,-1.0642,-1.0665,-1.0686,-1.0715,-1.0755,-1.0795,-1.0839,-1.0851,-1.0872,-1.0898,-1.0899,-1.091,-1.0919,-1.0919,-1.0924,-1.0927,-1.0907,-1.0907,-1.0908,-1.0908,0,0,-1.0419,-1.0494,-1.05,-1.0525,-1.0581,-1.0608,-1.0639,-1.0683,-1.0702,-1.0739,-1.0766,-1.0816,-1.0826,-1.0853,-1.0877,-1.0893,-1.0902,-1.0903,-1.0904,-1.0901,-1.0932,-1.0924,-1.0926,-1.0914,-1.0915,-1.0915,-1.0929,0,-1.043,-1.0489,-1.0524,-1.0568,-1.0601,-1.0633,-1.066,-1.0696,-1.0724,-1.0755,-1.0785,-1.0819,-1.0831,-1.0847,-1.0865,-1.0897,-1.0909,-1.0896,-1.0939,-1.094,-1.0927,-1.0929,-1.092,-1.0931,-1.0931,-1.0932,-1.0932,0,-1.0452,-1.049,-1.0538,-1.0589,-1.0604,-1.0628,-1.0671,-1.07,-1.0741,-1.076,-1.0789,-1.0813,-1.0846,-1.0851,-1.0896,-1.0887,-1.0906,-1.0925,-1.0926,-1.0932,-1.0936,-1.0935,-1.0936,-1.0937,-1.0936,-1.0935,-1.0935,0,-1.0435,-1.0498,-1.0535,-1.0555,-1.0616,-1.0632,-1.0658,-1.0699,-1.0723,-1.076,-1.0776,-1.0815,-1.0837,-1.0866,-1.09,-1.09,-1.0942,-1.0949,-1.0958,-1.0957,-1.0966,-1.0965,-1.097,-1.0977,-1.0977,-1.0977,-1.0977,0,-1.0445,-1.0473,-1.0528,-1.0551,-1.0583,-1.0622,-1.0652,-1.068,-1.0716,-1.0744,-1.0773,-1.0798,-1.0841,-1.0871,-1.0898,-1.0931,-1.0941,-1.0956,-1.0963,-1.0954,-1.0952,-1.0968,-1.0968,-1.0978,-1.0977,-1.0977,-1.0977,0,-1.0432,-1.047,-1.0513,-1.0567,-1.0581,-1.0602,-1.0648,-1.067,-1.0699,-1.0734,-1.0744,-1.0789,-1.0826,-1.0863,-1.0912,-1.093,-1.0963,-1.0971,-1.0949,-1.0953,-1.096,-1.0959,-1.0976,-1.098,-1.0983,-1.0983,-1.0983,0,-1.0436,-1.0459,-1.0515,-1.0536,-1.0562,-1.0595,-1.062,-1.0659,-1.0683,-1.0731,-1.0747,-1.0787,-1.082,-1.0877,-1.0914,-1.0951,-1.0961,-1.0965,-1.0967,-1.0957,-1.0962,-1.096,-1.0963,-1.0964,-1.0964,-1.0963,-1.0963,0,-1.0439,-1.0457,-1.0492,-1.0533,-1.0562,-1.0596,-1.0631,-1.0647,-1.0691,-1.0717,-1.0756,-1.0782,-1.0832,-1.087,-1.0912,-1.0938,-1.0958,-1.0962,-1.0966,-1.0957,-1.0944,-1.0951,-1.0946,-1.0962,-1.0962,-1.0962,-1.0962,-1.0962,-1.0435,-1.0456,-1.05,-1.0537,-1.0568,-1.06,-1.0624,-1.0656,-1.0689,-1.0734,-1.0754,-1.0793,-1.0832,-1.0891,-1.0915,-1.0945,-1.0951,-1.0956,-1.0958,-1.0959,-1.0957,-1.0938,-1.0953,-1.0953,-1.0953,-1.0953,-1.0953,0,-1.044,-1.0469,-1.0503,-1.0552,-1.0581,-1.0598,-1.0638,-1.0661,-1.0695,-1.0731,-1.0763,-1.0807,-1.0844,-1.0883,-1.0922,-1.0939,-1.0949,-1.0947,-1.0947,-1.0952,-1.095,-1.0943,-1.0939,-1.0939,-1.0939,-1.0939,-1.0939,-1.0939,-1.0446,-1.0483,-1.0505,-1.0557,-1.0586,-1.0625,-1.0646,-1.0675,-1.0704,-1.0752,-1.0783,-1.0809,-1.0846,-1.0887,-1.0922,-1.0932,-1.0945,-1.0941,-1.0954,-1.0951,-1.0953,-1.0954,-1.0947,-1.0944,-1.0944,-1.0954,-1.0955,-1.0955]}]]